Weather reports worldwide

Advertisment
Carterhouse, United Kingdom (99129): temperature & dewpoint: 14.10.2017 08:00:00 - 20.10.2017 08:00:00 (BST)Carterhouse, United Kingdom (99129): temperature -20cm & temperature -100cm: 14.10.2017 08:00:00 - 20.10.2017 08:00:00 (BST)Carterhouse, United Kingdom (99129): precipitation: 14.10.2017 08:00:00 - 20.10.2017 08:00:00 (BST)
Date & Time tt [°C] td [°C] tt -20cm [°C] tt -100cm [°C] rr [mm]
20.10.2017 08:00:00 - - - - -
20.10.2017 07:00:00 10,4 10,4 - - 0,2
20.10.2017 06:00:00 10,6 10,6 - - 0,0
20.10.2017 05:00:00 10,3 10,3 - - 0,4
20.10.2017 04:00:00 10,4 10,3 - - 0,8
20.10.2017 03:00:00 10,6 10,0 - - 1,2
20.10.2017 02:00:00 10,9 10,2 - - 0,4
20.10.2017 01:00:00 11,1 10,3 - - 0,0
20.10.2017 00:00:00 11,3 10,6 - - 0,0
19.10.2017 23:00:00 11,6 11,1 - - 0,6
19.10.2017 22:00:00 11,2 10,9 - - 0,2
19.10.2017 21:00:00 11,0 10,7 - - 2,0
19.10.2017 20:00:00 11,4 11,1 - - 3,8
19.10.2017 19:00:00 11,0 10,7 - - 1,0
19.10.2017 18:00:00 10,7 10,4 - - 0,6
19.10.2017 17:00:00 10,8 10,0 - - 0,0
19.10.2017 16:00:00 11,2 9,9 - - 0,0
19.10.2017 15:00:00 11,4 9,8 - - 0,0
19.10.2017 14:00:00 11,7 9,9 - - 0,0
19.10.2017 13:00:00 12,1 9,8 - - 0,0
19.10.2017 12:00:00 11,6 9,8 - - 0,0
19.10.2017 11:00:00 10,9 10,2 - - 0,0
19.10.2017 10:00:00 8,9 8,9 11,4 11,7 0,0
19.10.2017 09:00:00 9,0 8,8 - - 0,0
19.10.2017 08:00:00 9,3 8,8 - - 0,0
19.10.2017 07:00:00 9,2 8,6 - - 0,0
19.10.2017 06:00:00 9,4 8,8 - - 0,0
19.10.2017 05:00:00 9,0 8,7 - - 0,0
19.10.2017 04:00:00 8,9 8,6 - - 0,0
19.10.2017 03:00:00 8,9 8,4 - - 0,0
19.10.2017 02:00:00 8,9 8,3 - - 0,0
19.10.2017 01:00:00 9,0 8,2 - - 0,0
19.10.2017 00:00:00 9,2 8,5 - - 0,0
18.10.2017 23:00:00 9,3 8,1 - - 0,0
18.10.2017 22:00:00 9,1 8,2 - - 0,0
18.10.2017 21:00:00 8,6 8,1 - - 0,0
18.10.2017 20:00:00 8,4 8,0 - - 0,0
18.10.2017 19:00:00 8,4 7,9 - - 0,0
18.10.2017 18:00:00 8,7 8,1 - - 0,0
18.10.2017 17:00:00 9,0 8,3 - - 0,2
18.10.2017 16:00:00 8,9 8,3 - - 0,4
18.10.2017 15:00:00 9,1 8,2 - - 0,0
18.10.2017 14:00:00 9,8 8,7 - - 0,0
18.10.2017 13:00:00 10,0 8,1 - - 0,0
18.10.2017 12:00:00 9,2 8,0 - - 0,0
18.10.2017 11:00:00 9,3 7,9 - - 0,0
18.10.2017 10:00:00 8,9 8,1 11,5 11,9 0,0
18.10.2017 09:00:00 8,2 7,9 - - 0,0
18.10.2017 08:00:00 7,8 7,5 - - 0,2
18.10.2017 07:00:00 7,9 7,8 - - 0,4
18.10.2017 06:00:00 7,9 7,8 - - 0,2
18.10.2017 05:00:00 8,0 7,9 - - 0,0
18.10.2017 04:00:00 7,9 7,8 - - 0,4
18.10.2017 03:00:00 8,0 8,0 - - 0,2
18.10.2017 02:00:00 8,0 7,9 - - 0,0
18.10.2017 01:00:00 8,0 7,9 - - 0,8
18.10.2017 00:00:00 8,1 7,8 - - 0,0
17.10.2017 23:00:00 7,8 7,2 - - 0,0
17.10.2017 22:00:00 8,6 7,9 - - 0,0
17.10.2017 21:00:00 8,6 7,8 - - 0,0
17.10.2017 20:00:00 8,7 7,8 - - 0,0
17.10.2017 19:00:00 9,0 8,0 - - 0,0
17.10.2017 18:00:00 9,6 8,1 - - 0,0
17.10.2017 17:00:00 10,2 9,0 - - 0,0
17.10.2017 16:00:00 10,5 9,0 - - 0,0
17.10.2017 15:00:00 10,6 9,2 - - 0,0
17.10.2017 14:00:00 10,2 8,5 - - 0,0
17.10.2017 13:00:00 9,4 8,6 - - 0,0
17.10.2017 12:00:00 9,1 8,5 - - 0,0
17.10.2017 11:00:00 8,8 8,4 - - 0,0
17.10.2017 10:00:00 8,8 8,2 11,7 11,9 0,0
17.10.2017 09:00:00 8,8 8,0 - - 0,0
17.10.2017 08:00:00 8,8 8,1 - - 0,0
17.10.2017 07:00:00 8,7 8,3 - - 0,2
17.10.2017 06:00:00 8,8 8,2 - - 0,4
17.10.2017 05:00:00 9,0 8,4 - - 1,0
17.10.2017 04:00:00 9,0 8,3 - - 0,8
17.10.2017 03:00:00 9,9 9,2 - - 0,8
17.10.2017 02:00:00 10,3 9,5 - - 0,4
17.10.2017 01:00:00 10,5 9,7 - - 0,2
17.10.2017 00:00:00 10,7 9,7 - - 0,6
16.10.2017 23:00:00 10,2 9,3 - - 0,0
16.10.2017 22:00:00 11,2 8,4 - - 0,0
16.10.2017 21:00:00 11,0 8,5 - - 0,0
16.10.2017 20:00:00 11,7 8,2 - - 0,0
16.10.2017 19:00:00 12,3 7,8 - - 0,0
16.10.2017 18:00:00 13,5 7,8 - - 0,0
16.10.2017 17:00:00 14,9 12,0 - - 0,0
16.10.2017 16:00:00 13,5 12,9 - - 0,2
16.10.2017 15:00:00 12,2 12,0 - - 0,0
16.10.2017 14:00:00 11,7 11,5 - - 0,0
16.10.2017 13:00:00 12,3 11,7 - - 0,0
16.10.2017 12:00:00 11,8 11,4 - - 0,0
16.10.2017 11:00:00 11,4 10,9 - - 0,8
16.10.2017 10:00:00 11,1 10,8 12,0 11,9 0,2
16.10.2017 09:00:00 11,4 10,8 - - 0,2
16.10.2017 08:00:00 11,2 11,0 - - 0,0
16.10.2017 07:00:00 11,1 10,8 - - 0,0
16.10.2017 06:00:00 12,0 11,6 - - 0,2
16.10.2017 05:00:00 12,2 11,8 - - 0,0
16.10.2017 04:00:00 12,2 11,7 - - 0,2
16.10.2017 03:00:00 12,1 11,9 - - 0,0
16.10.2017 02:00:00 12,2 11,9 - - 0,2
16.10.2017 01:00:00 12,1 11,9 - - 0,4
16.10.2017 00:00:00 12,1 12,1 - - 0,2
15.10.2017 23:00:00 11,5 11,5 - - 1,0
15.10.2017 22:00:00 11,5 11,4 - - 0,6
15.10.2017 21:00:00 11,8 11,6 - - 0,4
15.10.2017 20:00:00 12,6 12,6 - - 1,0
15.10.2017 19:00:00 12,7 12,6 - - 0,2
15.10.2017 18:00:00 12,6 12,5 - - 0,2
15.10.2017 17:00:00 12,6 12,5 - - 0,2
15.10.2017 16:00:00 12,5 12,2 - - 0,0
15.10.2017 15:00:00 12,4 12,0 - - 0,2
15.10.2017 14:00:00 12,6 11,8 - - 0,0
15.10.2017 13:00:00 12,7 11,4 - - 0,0
15.10.2017 12:00:00 12,5 11,1 - - 0,0
15.10.2017 11:00:00 12,7 11,3 - - 0,0
15.10.2017 10:00:00 12,8 11,7 11,9 11,7 0,0
15.10.2017 09:00:00 12,9 11,1 - - 0,0
15.10.2017 08:00:00 12,3 11,1 - - 0,0
15.10.2017 07:00:00 12,3 11,0 - - 0,0
15.10.2017 06:00:00 12,5 10,6 - - 0,0
15.10.2017 05:00:00 12,7 10,4 - - 0,0
15.10.2017 04:00:00 12,6 10,8 - - 0,0
15.10.2017 03:00:00 12,3 10,8 - - 0,0
15.10.2017 02:00:00 11,9 11,2 - - 0,0
15.10.2017 01:00:00 12,1 11,4 - - 0,0
15.10.2017 00:00:00 11,9 11,1 - - 0,0
14.10.2017 23:00:00 12,2 10,9 - - 0,0
14.10.2017 22:00:00 12,7 11,0 - - 0,0
14.10.2017 21:00:00 12,7 11,5 - - 0,0
14.10.2017 20:00:00 12,9 12,1 - - 0,0
14.10.2017 19:00:00 13,3 13,3 - - 0,0
14.10.2017 18:00:00 13,6 13,6 - - 0,0
14.10.2017 17:00:00 13,7 13,7 - - 0,0
14.10.2017 16:00:00 13,5 13,4 - - 0,2
14.10.2017 15:00:00 13,1 12,8 - - 0,0
14.10.2017 14:00:00 12,8 12,6 - - 0,0
14.10.2017 13:00:00 12,5 12,2 - - 0,0
14.10.2017 12:00:00 12,3 11,7 - - 0,0
14.10.2017 11:00:00 11,6 11,4 - - 0,0
14.10.2017 10:00:00 11,1 11,1 11,7 11,9 0,0
14.10.2017 09:00:00 11,2 11,0 - - 0,2
14.10.2017 08:00:00 11,0 10,6 - - 0,0

tt = temperature
td = dewpoint
tt -20cm = temperature -20cm
tt -100cm = temperature -100cm
rr = precipitation

Next stations